Regional Weather Roundup
Issued by NWS

Home | Current Version | Previous Version | Text Only | Print | Product List | Glossary Off
Versions: 1 2 3 4 5 6 7 8 9 10 11 12 13 14 15 16 17 18 19 20 21 22 23 24 25 26 27 28 29 30 31 32 33 34 35 36 37 38 39 40 41 42 43 44 45 46 47 48 49 50

000
ASUS43 KFSD 020910
RWRSD

WEATHER ROUNDUP FOR SOUTH DAKOTA
NATIONAL WEATHER SERVICE SIOUX FALLS SD
400 AM CDT WED SEP 02 2015

NOTE: "FAIR" INDICATES FEW OR NO CLOUDS BELOW 12,000 FEET WITH NO
SIGNIFICANT WEATHER AND/OR OBSTRUCTIONS TO VISIBILITY.


SDZ001>005-009-010-012>017-021000-
NORTHWEST AND NORTH CENTRAL SOUTH DAKOTA

CITY           SKY/WX    TMP DP  RH WIND       PRES   REMARKS
BUFFALO          N/A     63  54  72 E7        29.77F
FAITH            N/A     66  54  65 SW5       29.82S
MOBRIDGE       CLEAR     66  66 100 E8        29.77S
$$

SDZ012>016-024>037-041>051-057-063-072>074-021000-
SOUTHWEST AND SOUTH CENTRAL SOUTH DAKOTA

CITY           SKY/WX    TMP DP  RH WIND       PRES   REMARKS
RAPID CTY ARPT CLEAR     59  50  72 N5        29.84F
PIERRE         FOG       60  60 100 NE3       29.76S VSB 1/4
CUSTER         PTCLDY    54  41  61 NW5       30.02S
ELLSWORTH AFB  CLEAR     68  48  49 NW2       29.83F
PHILIP         PTCLDY    59  55  87 NW8       29.80S
PINE RIDGE     CLEAR     61  47  59 NW3       29.87F
WINNER         FAIR      75  61  61 SW15      29.80R
$$

SDZ004>011-016>023-039-040-021000-
NORTHEAST SOUTH DAKOTA

CITY           SKY/WX    TMP DP  RH WIND       PRES   REMARKS
ABERDEEN       CLEAR     66  64  93 SE7       29.80F
WATERTOWN      CLEAR     65  61  87 SE7       29.85F
BROOKINGS      CLEAR     64  61  88 E10       29.87S
SISSETON         N/A     64  62  93 S5        29.83F
$$

SDZ017-020-022-023-036>040-048>070-021000-
SOUTHEAST SOUTH DAKOTA

CITY           SKY/WX    TMP DP  RH WIND       PRES   REMARKS
SIOUX FALLS    CLEAR     70  66  87 S7        29.84S
HURON          CLEAR     69  68  96 SE10      29.79F FOG
CHAMBERLAIN    CLEAR     65  64  99 SE5       29.79S
MITCHELL       CLEAR     67  67 100 SE6       29.81S FOG
YANKTON        CLEAR     70  64  83 SE7       29.82S
$$

ABBREVIATIONS USED IN REMARKS
   TC - TEMPERATURE IN CELSIUS
  WCI - WIND CHILL INDEX
   HX - HEAT INDEX
  VSB - VISIBILITY



USA.gov is the U.S. government's official web portal to all federal, state and local government web resources and services.